Regional Weather Roundup
Issued by NWS Albany, NY

Home | Current Version | Previous Version | Text Only | Print | Product List | Glossary On
Versions: 1 2 3 4 5 6 7 8 9 10 11 12 13 14 15 16 17 18 19 20 21 22 23 24 25 26 27 28 29 30 31 32 33 34 35 36 37 38 39 40 41 42 43 44 45 46 47 48 49 50
000
ASUS41 KALY 010610
RWRALY

NEW YORK STATE HOURLY WEATHER ROUNDUP
NATIONAL WEATHER SERVICE ALBANY NY
100 AM EST SUN FEB 01 2015

NOTE: "FAIR" INDICATES FEW OR NO CLOUDS BELOW 12,000 FEET WITH NO
SIGNIFICANT WEATHER AND/OR NO OBSTRUCTIONS TO VISIBILITY.

NYZ032-033-038>043-046>054-057>066-NYZ062>081-010700-
EAST


CITY           SKY/WX    TMP DP  RH WIND       PRES   REMARKS
ALBANY         CLOUDY    11   3  70 CALM      30.14F
GLENS FALLS    CLOUDY    -4 -10  75 CALM      30.13F
POUGHKEEPSIE   PTCLDY     4  -3  73 CALM      30.16F
NEWBURGH       CLEAR     14   7  73 W14       30.16S WCI  -1
MONTGOMERY     CLOUDY    15   5  64 SW10      30.14F WCI   2
WHITE PLAINS   CLEAR     17   6  62 W8        30.13F WCI   7
ISLIP          CLEAR     15   4  61 W3        30.16F
NEW YORK CITY  PTCLDY    21   8  57 W12       30.20F WCI   9
CENTRAL PARK   CLEAR     20   6  55 CALM      30.21S
$$

NYZ005>009-017-018-044>046-055-056-010700-
CENTRAL


CITY           SKY/WX    TMP DP  RH WIND       PRES   REMARKS
FULTON         LGT SNOW  19  12  74 S8        30.12F WCI   9
SYRACUSE       LGT SNOW  13  10  88 E3        30.12F FOG
ROME           LGT SNOW  11   7  84 CALM      30.15F FOG
ELMIRA         CLOUDY    14   8  77 CALM      30.14S
BINGHAMTON     CLOUDY    13   6  74 SW8       30.07R WCI   2
MONTICELLO     CLOUDY    12   7  79 W7        30.07S WCI   2
$$

NYZ026>034-041>043-010700-
NORTH


CITY           SKY/WX    TMP DP  RH WIND       PRES   REMARKS
WATERTOWN      CLOUDY    20  13  74 SW5       30.11F WCI  13
FORT DRUM      NOT AVBL
MASSENA        LGT SNOW   8   4  83 W7        30.14S FOG     WCI  -3
SARANAC LAKE   LGT SNOW   4   0  83 CALM      29.96F FOG
PLATTSBURGH    CLOUDY    11   2  67 SE5       30.10F WCI   3
$$

NYZ001>004-010>016-019>021-010700-
WEST


CITY           SKY/WX    TMP DP  RH WIND       PRES   REMARKS
NIAGARA FALLS  CLOUDY    27  22  81 W10       30.15S WCI  17
BUFFALO        FLURRIES  27  20  75 W12       30.15S WCI  17
DUNKIRK        CLOUDY    29  19  66 SW8       30.16F WCI  21
JAMESTOWN      CLOUDY    21  16  79 SW9       30.11F WCI  11
WELLSVILLE     CLOUDY    21  14  74 W10       30.08F WCI  10
ROCHESTER      CLOUDY    27  20  75 W13       30.13F WCI  16
PENN YAN       CLOUDY    26  18  71 W8        30.11F WCI  18
$$

             KEY
       WCI = WIND CHILL INDEX
       VSB = VISIBILITY
       HX  = HEAT INDEX
$$


USA.gov is the U.S. government's official web portal to all federal, state and local government web resources and services.